Location: Camaret
(48.2753°N, 4.5961°W)
Time: 11:01:07
(UTC+00:00)

X-37B - Pass Details

Date: 25 January 2021
Orbit: 383 x 391 km, 45.0° (Epoch: 27 February)

Event Time Altitude Azimuth Distance (km) Brightness Sun altitude
Rises 19:00:47 0° 265° (W) 2,274 6.2 -18.8°
Reaches altitude 10° 19:02:54 10° 259° (WSW) 1,420 4.7 -19.1°
Maximum altitude 19:05:58 45° 184° (S) 541 1.3 -19.6°
Enters shadow 19:06:05 45° 177° (S) 543 1.2 -19.7°
